GFSSGP_250_spd_015.txt.gz
Wind_Speed
36 33 34 34 31 30 28 28 27 26 26 26 27 27 27 27 26 26 26 26 26 25 24 18 23 20 24 28 29 32 36 37 37 41 41 45 49 51 55 43 35 35 31 33 38 36 29 25 20
33 32 32 32 30 30 31 29 27 27 27 28 28 30 32 31 31 31 30 27 25 24 20 23 21 26 27 28 34 34 39 36 40 37 41 44 51 47 39 33 34 30 25 29 31 31 28 24 16
31 31 32 29 28 27 27 29 28 28 30 30 29 30 30 30 29 30 26 23 21 19 21 22 23 26 28 28 30 31 35 36 36 43 43 46 45 37 32 32 30 19 23 27 30 32 32 26 16
28 27 28 25 23 24 24 25 26 23 24 24 25 23 22 18 19 19 21 22 23 26 23 22 22 22 29 30 30 34 39 39 43 48 43 37 29 27 28 29 22 15 23 28 30 33 34 30 22
25 24 26 26 24 20 20 22 22 20 19 15 13 12 11 12 13 13 17 22 20 20 23 24 29 31 30 33 36 39 41 42 45 33 28 26 25 25 26 24 14 15 18 25 27 29 32 29 22
19 22 24 23 21 19 19 21 22 19 15 11 12 12 15 14 14 15 16 19 21 23 24 25 25 28 30 34 37 38 39 34 27 23 24 23 22 21 21 17 13 14 16 21 25 28 30 29 25
16 19 21 20 18 16 15 14 10 14 14 15 14 10 12 16 17 16 16 16 16 17 21 24 28 31 33 32 29 26 21 20 20 19 19 20 21 20 17 11 11 14 16 18 23 25 26 27 26
17 18 19 18 16 15 14 12 12 13 15 18 19 14 12 10 15 18 17 18 20 22 26 24 22 22 22 19 17 17 19 17 17 17 19 18 18 16 16 14 11 12 14 16 19 24 22 21 21
10 10 11 15 15 13 11 11 13 16 18 17 18 18 17 17 15 21 23 24 24 22 16 12 11 12 13 15 16 18 18 15 16 16 15 16 20 20 19 17 14 13 13 15 19 26 23 20 17
8 9 6 6 10 9 10 11 11 8 9 13 15 14 19 21 23 21 18 15 9 5 5 7 10 13 15 15 15 14 15 15 15 14 15 15 15 15 18 18 18 17 18 20 22 24 24 21 18
8 8 5 8 6 7 5 5 3 3 4 4 7 10 11 10 8 7 6 3 3 6 8 10 11 11 12 11 12 12 12 13 14 14 16 15 17 19 18 21 22 20 20 22 22 23 22 18 17
11 8 7 7 8 10 11 9 6 4 5 8 7 3 2 1 5 5 5 5 5 3 5 6 8 9 9 10 10 13 16 18 20 20 19 19 19 19 19 22 25 24 24 23 23 23 23 19 18
11 11 9 8 9 11 11 5 3 5 4 3 1 6 7 6 8 7 7 4 2 8 8 8 9 11 13 14 15 17 21 20 19 21 23 24 22 21 20 19 21 22 23 23 26 28 34 34 27
19 11 9 9 5 4 8 6 5 6 6 8 10 7 3 1 0 1 5 9 11 13 14 14 14 14 15 15 15 17 17 18 18 18 21 21 19 19 20 18 17 20 21 23 25 28 34 33 36
20 19 15 15 13 8 6 6 8 8 8 8 9 10 10 8 9 11 14 17 17 16 15 14 14 13 14 14 15 16 17 17 18 18 21 21 18 17 17 18 19 19 21 24 26 30 32 37 41
14 16 19 20 18 14 15 12 8 7 7 9 11 13 17 17 18 18 17 14 13 14 14 13 12 13 13 13 14 15 17 17 18 20 19 17 16 15 16 19 20 21 22 24 26 32 35 38 42
6 10 10 13 18 18 19 16 16 15 17 17 16 16 17 17 14 12 12 12 14 13 13 13 13 12 11 12 13 14 15 14 15 17 17 18 16 17 18 21 22 25 25 28 31 33 37 43 45
3 3 6 4 9 11 11 11 13 14 10 11 11 12 12 11 12 13 12 12 12 12 12 11 11 11 11 11 12 13 15 14 16 18 19 22 22 20 22 24 27 28 28 32 35 35 37 42 46
6 3 1 2 4 8 8 8 7 5 6 9 12 13 13 11 10 10 10 10 9 9 9 9 10 10 10 11 12 14 16 18 18 19 21 22 25 26 25 26 28 31 32 33 35 37 38 40 45
13 10 7 4 2 1 3 3 4 4 6 9 9 8 8 8 7 7 6 7 6 6 6 7 8 11 13 13 14 15 17 18 20 22 24 25 26 28 29 30 31 33 32 33 32 37 41 43 46
20 19 14 10 8 7 6 5 5 4 8 7 6 2 1 1 2 4 4 5 7 6 5 7 9 11 14 17 18 19 21 23 25 28 29 30 29 31 33 33 33 35 37 37 34 37 43 45 46
31 28 21 16 16 11 12 12 9 8 13 9 8 6 5 4 4 4 5 6 8 9 9 10 13 16 19 20 21 24 25 27 29 31 33 34 34 35 37 37 38 39 40 38 36 35 44 46 50
42 34 29 23 21 18 19 16 13 13 12 9 8 9 9 7 7 8 9 9 9 9 12 14 18 21 22 24 26 28 30 30 31 32 35 36 36 38 39 40 40 41 38 35 38 40 41 45 50
47 35 33 31 26 22 26 22 20 17 17 14 12 12 13 13 12 11 11 13 14 16 19 20 22 25 27 29 31 34 33 34 35 35 37 38 38 40 41 42 41 43 40 41 42 42 41 46 52
47 43 35 31 30 31 28 28 26 22 22 19 18 17 16 17 16 16 17 20 22 23 26 27 27 30 32 34 35 36 35 35 37 40 42 42 42 44 45 45 48 48 42 43 43 44 43 46 53
52 51 43 38 34 38 37 35 28 26 24 27 27 24 23 22 22 23 25 26 29 31 32 33 33 34 35 37 38 39 41 42 42 41 41 43 43 46 49 49 54 51 46 42 48 49 47 52 57
59 54 49 45 39 39 40 40 35 31 32 31 30 30 28 28 30 29 31 32 35 35 37 37 37 38 39 40 42 43 44 44 44 45 46 47 48 50 49 49 54 46 45 46 51 53 53 57 63
66 63 58 51 44 41 43 43 44 39 36 36 36 35 33 33 34 33 34 35 37 38 38 39 40 41 42 43 44 44 45 46 47 48 50 51 52 55 51 55 47 45 45 50 52 58 63 63 68
71 68 64 56 50 45 45 45 49 46 43 40 42 40 39 39 39 38 37 39 41 42 43 44 44 43 44 45 46 47 48 49 50 52 51 54 57 53 49 52 49 45 47 53 63 68 62 67 67
81 75 70 65 55 52 51 50 54 52 47 44 45 44 45 46 43 42 41 44 45 45 45 46 47 46 43 44 47 49 51 52 53 55 56 55 50 48 55 52 52 43 64 66 56 63 66 70 74

GFSSGP_250_spd_021.txt.gz
Wind_Speed
27 27 27 24 26 31 32 35 32 29 28 25 20 19 21 22 26 27 25 27 27 26 29 31 32 29 25 24 27 33 34 35 36 39 42 43 38 25 22 17 9 14 20 23 27 29 24 20 17
26 28 28 29 29 28 25 29 28 30 29 27 24 24 24 25 26 27 28 29 30 31 31 32 29 23 22 25 25 29 34 35 37 41 41 36 27 22 18 16 4 13 17 21 25 30 27 20 15
26 25 28 31 30 29 25 25 27 26 26 27 28 28 28 28 29 29 29 29 30 30 29 24 21 21 25 24 25 30 33 37 37 38 29 26 22 18 17 9 2 9 14 16 25 28 26 21 15
26 25 25 29 32 33 31 30 30 30 30 30 30 31 33 32 31 28 28 27 25 24 21 24 27 26 26 28 30 34 31 34 27 22 23 20 19 17 12 5 7 9 12 14 24 26 24 25 20
26 26 26 28 30 29 28 27 27 25 28 29 30 31 27 26 23 21 19 19 19 20 21 21 23 23 25 28 29 30 25 21 19 20 18 19 16 11 6 6 8 9 11 13 21 22 22 22 22
27 28 28 27 28 25 26 26 25 26 26 25 23 23 19 19 16 15 14 16 18 21 25 26 25 24 24 25 24 19 14 17 16 15 14 13 13 13 9 7 8 10 13 15 19 20 19 20 17
27 28 28 29 27 26 24 25 23 23 23 21 18 15 17 13 15 19 16 17 16 18 19 21 22 23 25 17 12 13 13 12 12 10 9 12 13 15 16 13 12 13 14 15 16 17 16 16 14
26 27 25 24 24 24 22 23 21 19 18 17 18 16 15 14 14 8 11 11 15 18 21 22 21 21 10 9 10 11 10 10 10 9 10 8 12 16 17 16 16 17 20 22 24 24 21 16 12
19 20 22 22 22 21 19 19 18 17 16 17 17 19 19 18 17 15 13 15 21 22 20 13 7 7 8 8 8 6 8 9 9 10 11 11 12 16 19 20 21 25 25 27 29 31 31 27 19
13 15 19 18 18 19 19 18 17 16 16 17 17 20 17 15 15 15 15 16 10 8 5 6 7 9 5 3 7 11 15 15 14 14 13 13 15 18 18 20 21 22 22 24 29 31 30 30 26
16 19 14 16 16 15 15 15 15 15 13 13 10 9 10 9 7 6 3 2 4 6 7 8 5 3 7 12 14 15 16 16 16 17 16 15 16 16 20 19 20 20 21 25 27 27 32 27 30
6 8 6 9 10 11 12 10 11 11 8 7 9 9 8 5 6 4 4 6 8 7 5 4 6 13 17 18 16 16 15 15 15 15 13 15 16 16 19 20 21 22 23 22 24 25 33 30 28
3 1 5 7 9 11 11 12 13 11 11 12 9 3 2 4 6 5 4 6 4 4 8 14 17 18 16 15 15 14 15 17 17 18 16 14 17 18 19 20 21 21 23 21 25 24 24 30 26
8 1 6 8 11 14 15 14 12 12 13 14 5 0 5 5 4 4 3 5 10 14 13 17 16 16 16 14 14 15 17 17 16 17 16 14 16 16 17 20 21 21 22 23 24 27 29 28 28
12 6 1 7 14 16 14 13 11 10 8 6 2 3 0 6 7 9 14 16 14 13 14 15 16 15 14 15 14 13 12 14 14 14 17 19 16 20 19 20 22 21 22 24 25 29 28 25 26
6 11 13 5 3 16 19 16 13 9 8 11 10 6 10 13 15 17 15 13 13 13 12 13 14 14 14 13 13 12 11 12 14 17 18 18 21 21 21 21 22 23 24 24 28 28 24 24 28
2 2 6 11 8 5 11 15 12 14 16 15 14 17 20 20 16 14 13 13 13 13 12 13 13 11 10 10 11 11 13 14 16 17 18 19 19 21 21 22 23 24 26 27 27 28 24 25 27
5 4 1 6 7 6 11 16 19 19 19 21 21 20 16 14 14 14 14 14 14 13 11 11 10 9 8 8 9 10 13 15 16 18 19 20 21 21 21 24 23 24 24 24 25 26 22 26 24
12 8 6 4 8 7 8 13 14 16 20 22 21 16 14 14 13 14 13 12 11 11 10 8 7 5 5 6 8 10 13 16 19 21 21 21 22 22 22 23 24 25 25 26 26 28 22 23 27
20 16 12 10 8 10 10 9 8 12 18 19 18 19 17 14 12 10 9 9 8 8 6 5 4 2 3 7 11 12 14 17 20 22 22 23 23 22 22 24 26 30 31 32 29 29 23 23 27
27 25 21 17 13 11 13 12 11 11 16 18 19 17 16 15 11 10 9 8 7 7 6 5 5 3 6 10 13 14 16 18 21 21 22 23 23 24 26 29 29 33 34 34 31 25 22 20 24
35 32 28 24 18 17 16 15 14 14 16 17 18 16 15 15 11 10 10 11 10 9 8 8 6 7 10 13 16 17 20 21 21 22 23 24 25 27 29 31 32 35 33 31 29 26 26 27 29
43 42 36 30 27 24 19 18 18 19 20 21 20 18 14 17 15 14 14 13 13 12 11 10 9 11 14 16 18 21 22 23 24 24 24 25 28 31 33 34 35 37 33 26 25 29 32 32 32
52 49 40 36 34 29 23 23 22 22 21 23 25 24 22 20 20 19 18 17 16 15 14 14 15 16 18 19 20 22 24 25 25 24 27 30 32 35 38 41 40 39 37 29 31 34 32 35 36
58 51 46 39 36 34 31 30 27 27 24 25 27 27 26 25 23 21 22 20 18 18 18 19 20 21 22 23 24 25 26 26 26 27 30 33 35 39 42 42 44 39 33 31 37 38 39 40 43
65 60 51 49 45 43 41 35 37 35 31 27 27 29 27 28 26 26 25 23 23 22 23 24 25 26 27 27 27 28 28 27 27 29 32 35 37 41 43 42 41 38 36 41 40 43 48 48 49
68 69 56 57 54 51 44 45 47 41 35 31 33 34 32 31 29 27 27 27 28 29 29 29 29 29 29 30 30 29 29 29 28 30 34 38 41 44 44 39 39 35 33 38 39 41 50 47 49
75 72 71 62 57 51 52 52 47 45 38 38 40 39 38 37 35 34 34 32 32 33 33 34 33 33 33 33 32 32 31 30 31 33 36 39 44 46 42 40 40 38 37 38 43 45 45 48 49
81 76 78 72 65 59 58 54 54 53 44 40 47 45 44 42 40 39 39 37 37 37 38 37 37 37 37 36 34 35 35 34 35 38 37 43 46 49 46 39 42 42 42 45 47 47 49 51 52
89 86 87 83 72 65 61 57 62 63 52 47 50 49 49 48 46 44 44 41 42 43 42 42 41 41 40 39 39 39 38 39 39 40 42 44 48 51 47 44 42 42 41 44 46 50 53 57 54

GFSSGP_250_spd_024.txt.gz
Wind_Speed
24 21 15 19 27 27 30 28 36 34 31 25 21 17 14 15 23 21 24 29 29 29 30 32 32 32 31 36 29 27 30 33 37 41 43 39 28 23 20 14 4 11 14 20 25 21 15 12 11
26 23 9 6 17 12 23 29 33 35 34 29 24 22 22 21 23 29 29 30 31 30 32 32 34 35 32 27 29 29 31 33 37 38 37 22 22 20 18 9 4 10 12 20 25 21 18 13 7
26 26 34 25 27 11 18 22 29 33 34 30 26 25 26 26 27 30 31 31 32 32 32 33 32 29 27 29 31 33 32 33 34 32 22 21 21 18 12 6 4 7 11 16 21 21 21 16 10
24 26 31 42 43 31 27 27 27 30 29 27 28 28 29 31 32 34 34 33 31 30 28 26 22 26 29 28 28 29 30 32 25 20 21 19 14 12 6 6 5 7 12 13 17 16 17 18 12
26 19 36 35 34 35 34 32 29 28 30 32 31 32 31 33 33 29 28 29 23 19 20 21 23 26 25 25 26 27 27 19 18 18 15 14 15 11 7 8 7 10 13 16 15 14 13 13 13
31 33 25 31 30 33 33 30 31 30 30 29 28 29 29 24 24 21 19 19 19 18 21 24 28 29 30 26 27 22 16 17 15 12 11 12 12 12 11 10 10 13 15 16 16 15 11 9 9
28 29 32 27 29 28 27 27 28 28 27 28 26 25 23 18 18 17 18 20 20 20 17 17 17 23 24 25 19 14 15 12 9 9 8 8 12 14 13 13 16 20 24 24 24 27 24 15 9
16 28 28 28 28 25 25 24 24 23 24 26 23 23 22 19 18 17 14 13 12 13 18 20 23 24 15 12 13 13 8 6 9 9 10 13 18 19 20 20 20 20 21 28 31 30 30 27 20
21 13 22 28 28 26 23 23 22 21 22 21 20 21 18 20 19 18 16 14 14 18 22 21 14 10 10 12 7 4 9 14 13 11 11 15 13 17 19 20 19 21 27 30 29 37 33 35 31
15 23 24 21 25 27 23 22 21 21 21 20 20 20 22 21 18 19 18 15 17 12 7 7 8 9 7 2 9 13 14 14 15 14 15 15 15 17 20 20 20 22 26 25 25 29 30 32 35
21 2 21 24 19 19 20 21 22 22 21 19 19 20 19 19 18 13 12 10 8 4 7 7 7 1 6 12 14 14 14 14 16 15 14 16 18 20 21 20 21 23 22 24 24 27 28 24 28
22 10 14 13 18 18 18 17 19 19 17 14 13 13 12 12 10 10 9 7 3 6 6 3 3 12 15 15 14 14 16 18 19 17 15 17 16 16 17 17 19 22 21 23 22 23 21 19 31
15 14 10 6 8 11 11 14 12 9 9 10 10 6 3 5 7 9 8 4 1 2 2 10 15 14 14 14 15 18 17 18 19 16 14 16 15 15 16 17 19 21 22 23 20 23 20 19 23
5 1 4 4 7 7 10 12 11 9 8 12 13 8 6 6 8 8 5 6 5 9 15 16 14 14 13 15 17 17 15 15 15 16 17 14 18 18 20 21 21 22 23 23 24 23 21 21 20
10 6 3 5 9 9 11 10 9 9 13 17 15 8 5 7 8 7 7 10 15 15 16 15 14 15 15 14 14 13 15 17 16 16 17 17 18 19 19 21 21 22 23 23 23 24 20 22 25
2 6 9 3 4 12 14 11 11 12 13 16 18 11 11 13 12 12 14 14 14 15 15 14 15 15 14 15 14 14 14 15 16 17 17 18 19 20 20 21 21 23 23 24 22 22 22 18 21
4 1 4 6 5 2 10 6 13 17 14 16 16 15 16 19 19 16 14 13 13 13 13 14 12 12 12 12 12 12 14 15 16 17 17 18 18 19 19 20 20 23 24 25 25 23 23 14 15
9 6 3 2 4 7 11 6 7 10 16 18 17 19 21 19 15 15 15 15 15 15 13 11 10 9 9 9 9 10 12 13 14 15 15 16 17 17 18 20 20 22 24 25 26 24 24 17 16
16 13 9 6 5 9 11 18 9 14 15 17 19 20 17 17 17 15 14 14 14 12 11 9 8 7 7 7 9 10 11 12 14 15 16 18 18 17 18 19 22 24 27 27 25 22 21 16 18
23 19 15 11 9 11 15 16 11 10 10 16 16 14 16 17 17 15 13 11 10 10 9 7 6 4 3 5 9 10 12 15 17 18 19 18 17 19 21 24 26 27 29 29 26 21 19 18 24
29 27 23 18 14 12 16 15 10 10 13 14 14 15 16 17 17 16 14 13 11 10 8 6 4 2 3 8 10 12 15 16 18 19 20 18 20 22 24 26 28 30 31 26 21 18 20 21 21
33 35 32 25 20 18 18 15 15 15 15 17 17 15 14 16 14 14 14 14 12 11 9 8 7 5 5 10 12 13 15 18 19 20 19 20 23 25 28 30 33 31 30 25 23 24 26 28 32
41 42 38 34 29 27 22 20 21 18 18 19 20 18 15 15 15 14 15 14 14 12 11 9 8 8 9 11 14 16 17 19 19 18 20 23 26 29 31 34 36 34 31 28 26 27 29 30 33
51 46 46 40 36 32 29 25 23 22 23 24 24 24 22 20 21 21 18 17 16 15 13 11 11 11 13 15 16 18 20 21 20 20 21 24 28 32 35 38 39 36 33 32 31 32 38 40 40
58 54 48 44 38 33 35 29 28 28 26 27 27 29 29 27 23 24 23 22 20 17 16 15 15 16 17 18 19 20 22 22 23 23 24 26 30 33 37 40 43 40 35 36 38 42 42 38 39
65 63 56 51 48 46 42 36 35 33 32 28 28 31 33 31 29 29 27 25 21 20 19 20 20 20 22 22 21 22 23 23 25 27 25 28 32 35 38 40 43 43 40 41 44 43 42 42 44
69 71 61 59 56 54 46 45 44 43 39 35 35 33 34 35 32 32 31 28 24 24 23 24 25 26 27 26 25 24 26 26 27 29 29 31 34 36 40 45 46 46 42 43 45 45 44 46 46
75 73 72 68 62 53 53 52 47 50 46 47 40 37 40 38 36 35 34 31 30 28 27 29 29 29 29 30 30 28 28 29 31 31 32 35 36 42 41 44 47 47 47 43 45 47 47 45 45
80 80 76 77 72 64 60 54 54 55 53 50 45 41 43 46 40 38 39 36 35 34 33 33 33 32 33 33 33 32 33 35 34 35 36 38 40 42 46 48 51 51 51 48 46 45 48 50 48
67 81 83 83 77 72 66 58 60 61 62 58 53 47 46 54 46 45 42 40 39 39 39 38 38 36 36 36 36 37 38 40 39 38 40 41 44 45 47 50 54 55 54 53 50 51 51 53 54

GFSSGP_250_spd_027.txt.gz
Wind_Speed
17 21 20 21 24 26 24 23 26 30 31 32 30 25 23 19 19 19 22 24 24 27 29 30 33 37 39 38 38 33 33 32 35 36 34 36 28 23 20 9 2 8 14 21 21 16 12 9 12
18 17 16 23 27 27 28 27 27 34 24 27 28 20 19 18 21 24 23 25 31 30 31 32 35 38 38 36 32 32 32 33 29 31 32 25 23 19 13 5 1 9 14 16 17 18 13 8 6
23 15 9 11 15 8 23 32 22 26 22 19 24 28 27 25 26 25 28 31 32 34 34 35 35 34 32 27 30 30 26 27 29 29 23 21 14 13 11 5 4 11 15 15 15 15 15 11 6
25 22 13 37 29 33 22 17 18 22 25 28 30 30 30 25 25 29 33 35 35 34 33 32 30 23 24 28 29 27 30 28 26 21 17 13 12 13 10 7 8 13 15 15 14 12 11 12 8
31 39 22 18 33 28 30 35 27 26 27 27 30 30 29 29 31 32 34 31 28 24 20 20 20 22 27 30 29 29 27 26 18 13 10 9 10 11 11 11 14 16 20 23 20 13 8 9 11
31 37 37 48 49 47 39 35 32 29 29 28 27 27 30 31 33 34 28 23 19 17 20 21 23 24 21 20 25 25 21 17 10 7 8 14 17 15 16 19 22 22 23 26 27 24 11 8 10
28 31 35 36 41 40 38 32 27 31 29 25 29 27 28 28 28 25 21 20 17 19 18 18 17 20 22 25 19 15 14 7 4 9 15 17 18 19 23 20 21 22 29 31 33 33 26 16 7
31 21 33 38 38 37 35 30 28 26 24 23 26 26 25 24 23 22 20 17 16 15 14 16 20 20 18 12 13 10 5 7 13 13 14 17 20 20 19 20 22 24 21 27 28 33 33 29 21
24 21 21 32 32 28 32 31 29 22 22 23 22 23 23 25 22 22 18 16 16 17 17 21 14 9 11 10 5 9 11 13 15 16 15 17 18 19 20 18 20 22 22 24 23 23 27 28 23
19 15 15 16 18 17 26 26 25 21 23 21 18 20 23 21 19 20 16 18 16 16 15 5 6 8 4 6 10 12 13 13 16 16 15 16 16 17 16 20 21 18 18 22 21 23 30 28 25
19 15 28 22 22 22 22 24 25 22 22 21 20 20 19 22 20 20 17 16 15 9 3 5 5 3 9 12 11 11 14 16 18 15 15 14 14 16 15 17 16 15 18 19 22 20 24 28 31
25 31 21 21 21 22 20 17 21 20 21 21 20 18 17 16 14 14 12 9 7 4 2 2 5 11 13 12 12 16 18 18 16 15 16 14 14 13 15 16 17 18 18 18 19 18 14 10 14
16 20 18 16 20 14 21 18 19 18 16 13 12 11 8 9 11 11 8 6 6 3 4 10 15 15 13 12 15 14 17 18 15 12 12 15 15 15 15 16 17 18 18 18 18 15 16 11 14
6 13 17 19 14 16 14 10 10 11 9 6 9 12 11 12 8 8 7 9 7 10 15 16 15 15 13 16 14 15 14 15 15 13 14 14 14 15 16 18 18 20 19 20 18 18 15 15 17
5 7 5 2 7 13 11 9 8 7 7 7 11 12 11 11 9 9 10 12 16 18 17 15 14 15 14 12 14 14 14 14 14 14 13 13 14 16 15 17 17 20 18 20 18 15 14 7 8
7 7 7 5 3 4 8 9 5 6 7 10 13 19 20 15 15 16 18 17 17 17 17 14 15 14 14 14 13 12 12 13 12 13 13 14 14 14 14 15 16 19 20 20 20 14 14 3 7
10 10 9 6 5 4 11 9 4 11 13 14 13 19 22 17 20 22 19 19 19 17 16 16 15 14 13 11 11 10 10 11 12 12 13 13 14 13 13 15 17 21 23 25 22 18 15 10 8
14 13 10 8 5 2 13 11 2 7 12 12 12 17 16 20 21 20 20 19 19 18 16 15 14 13 11 9 8 7 9 10 12 13 14 15 14 14 17 19 21 23 23 25 21 18 15 13 15
19 18 14 11 8 3 14 9 8 7 9 11 15 18 19 17 17 18 19 18 19 17 15 13 12 10 8 6 6 6 8 10 13 15 15 14 14 16 21 23 24 27 25 24 21 19 17 13 16
23 23 21 15 11 9 11 15 10 7 10 14 18 18 16 16 17 18 18 19 16 14 13 11 10 8 5 4 5 7 9 12 13 14 15 14 16 20 21 25 28 30 29 26 23 22 20 23 27
29 29 28 20 18 14 15 17 13 11 11 15 17 14 15 17 18 19 18 17 16 15 13 11 10 7 4 1 5 7 10 14 15 15 14 16 18 21 25 27 32 33 31 25 26 28 26 25 26
34 37 35 29 25 18 19 20 17 14 13 16 15 15 16 17 19 18 17 16 15 15 13 11 8 7 6 5 6 9 12 14 15 15 16 17 21 24 27 30 33 37 38 34 30 28 32 34 34
46 41 41 37 31 26 20 20 21 19 19 19 19 17 16 16 17 16 16 15 15 14 12 10 10 10 9 7 8 11 14 15 16 17 18 18 21 25 29 32 33 37 39 39 34 32 32 32 30
55 45 44 42 36 27 27 22 21 22 24 25 23 20 19 18 16 15 15 15 15 15 13 12 11 12 11 10 12 14 14 16 17 19 20 22 24 26 28 31 36 37 39 41 40 38 36 34 33
57 55 48 44 39 30 32 26 28 27 24 25 26 25 27 27 25 22 22 19 17 17 15 14 13 15 15 14 15 18 17 18 19 20 22 25 27 28 30 32 35 38 40 43 46 43 39 37 36
60 59 55 49 47 47 43 34 37 33 32 30 27 26 30 31 30 25 23 21 23 19 18 18 17 18 18 19 21 21 21 23 23 23 23 26 30 32 32 34 35 40 42 44 44 46 44 40 41
58 60 64 63 58 53 44 42 43 41 37 34 32 30 34 32 33 31 26 28 27 23 21 23 21 21 20 23 24 24 24 25 25 27 26 28 30 35 36 36 37 39 42 45 48 48 46 44 43
43 55 65 63 60 54 52 50 45 47 42 43 39 36 35 37 33 34 33 36 33 29 25 27 26 25 24 26 27 27 27 29 29 29 29 32 34 36 39 40 41 44 44 48 51 53 48 45 45
40 39 51 67 67 62 59 51 56 54 52 50 47 48 43 43 43 36 40 36 34 33 31 28 30 30 29 29 31 31 30 33 33 32 32 34 39 41 40 43 45 46 48 50 53 55 53 50 47
45 40 43 55 62 70 70 56 63 63 65 59 56 53 44 46 42 44 44 40 37 37 36 34 34 35 34 34 34 34 35 37 36 35 36 39 42 46 46 46 48 49 50 52 54 56 56 53 51

GFSSGP_250_spd_030.txt.gz
Wind_Speed
19 18 21 20 14 19 16 20 22 29 32 30 30 29 26 24 24 22 21 24 24 29 32 32 33 36 37 38 41 40 34 31 29 30 32 30 25 19 12 3 5 13 17 15 16 14 5 7 8
20 19 20 19 17 22 26 24 24 26 26 27 27 28 21 25 22 19 23 24 26 25 31 38 36 37 38 37 34 27 27 29 31 32 30 24 15 12 9 2 7 15 17 15 13 11 7 1 4
18 18 14 14 21 17 21 28 28 28 29 30 28 24 21 24 24 27 28 28 29 31 36 38 38 35 33 27 23 26 28 30 28 29 22 14 12 11 9 7 11 13 14 14 12 9 7 2 0
21 18 11 9 25 13 21 21 22 22 28 24 23 26 25 25 24 26 26 30 30 34 36 31 25 20 19 23 28 26 25 26 26 19 13 12 10 12 11 10 12 14 15 12 9 4 5 9 5
24 24 17 10 26 22 25 26 24 18 17 24 27 27 27 29 30 31 31 33 34 34 28 19 19 20 23 26 22 22 24 21 16 9 10 11 12 13 17 17 18 18 18 21 20 10 5 9 12
23 20 24 32 25 28 29 29 28 30 35 31 32 31 30 29 28 31 32 33 30 24 19 20 22 19 18 22 21 19 16 14 6 10 13 15 16 18 17 17 20 20 24 30 30 25 11 10 10
19 33 34 25 29 21 37 40 36 41 39 33 31 30 30 30 28 28 29 26 21 19 18 17 12 16 20 15 13 14 10 4 11 13 14 17 16 16 15 17 14 15 19 21 26 25 22 8 9
41 20 34 42 43 36 31 28 29 34 34 31 32 32 29 27 26 25 22 22 17 16 15 16 18 22 10 12 10 5 8 12 13 12 16 14 15 15 13 13 14 17 18 19 20 21 19 16 7
39 34 31 35 31 39 40 36 35 34 33 28 30 28 29 27 22 22 21 18 15 15 15 16 14 6 8 5 8 11 12 14 14 12 9 12 14 14 14 12 15 18 21 17 18 23 28 25 16
40 42 41 41 30 29 27 24 30 32 29 26 26 25 23 20 20 20 15 14 15 13 13 7 4 5 5 11 10 11 12 15 14 13 11 11 12 12 13 14 15 16 16 14 15 19 23 24 26
37 40 43 45 35 25 22 21 24 24 23 22 21 19 19 21 19 18 18 16 13 8 5 4 1 6 11 11 9 10 14 15 16 12 9 11 12 12 14 14 15 16 15 15 12 10 9 13 13
30 31 27 29 28 29 27 24 22 20 18 18 21 21 19 17 17 14 11 10 4 4 6 3 7 13 13 11 14 14 16 14 13 13 12 11 11 13 14 14 16 16 16 13 10 10 7 9 14
13 15 20 26 27 25 22 24 20 16 16 16 17 16 13 10 8 5 5 4 6 7 7 10 15 15 12 14 14 15 15 14 12 10 10 11 11 11 12 14 17 14 13 14 13 10 8 8 16
7 10 11 20 22 20 16 13 18 16 15 13 10 9 7 5 3 4 7 8 7 9 16 18 16 14 15 13 13 13 12 10 10 8 11 11 11 11 15 13 15 19 18 16 16 10 5 2 4
7 3 3 10 13 16 15 18 17 10 11 11 12 10 5 6 11 12 10 8 12 19 20 16 15 16 15 15 13 12 10 10 10 11 13 13 14 14 14 15 19 22 21 23 19 14 10 6 10
14 10 6 5 4 13 14 18 15 13 12 9 9 11 11 9 14 14 12 18 21 20 18 16 17 15 16 14 12 9 8 10 11 13 15 16 15 14 17 17 20 24 23 24 21 17 16 10 11
16 15 11 7 5 12 12 15 10 10 10 10 10 11 13 14 13 16 23 21 21 20 18 19 18 17 15 12 9 7 8 10 11 13 14 14 15 16 19 21 23 25 25 25 24 22 17 14 16
19 20 15 12 6 9 10 16 12 12 15 15 13 11 12 13 18 23 23 24 21 19 20 19 18 17 13 9 6 5 6 8 10 12 13 13 14 17 21 25 28 30 30 26 27 24 21 22 24
23 23 21 13 12 5 12 6 5 9 11 12 11 9 14 17 23 22 21 21 20 20 19 19 17 15 11 7 4 3 5 8 10 13 12 13 15 18 23 25 27 30 31 27 25 25 27 26 25
27 27 27 20 13 10 6 16 9 2 6 8 11 15 19 23 21 22 22 21 19 20 19 17 15 12 9 5 2 2 5 8 11 11 11 12 14 17 21 24 27 30 30 32 30 26 25 26 23
33 34 32 26 18 13 10 17 8 4 5 9 14 17 17 16 18 20 24 25 24 21 19 17 15 12 8 4 0 3 7 8 11 12 13 13 15 19 22 24 27 31 33 33 31 31 28 26 27
39 44 35 31 25 20 15 11 19 11 9 12 17 14 13 16 17 18 20 21 21 20 18 16 14 11 8 5 4 5 9 10 11 12 12 15 17 19 22 25 28 29 32 34 33 33 34 31 28
55 43 39 35 30 24 15 16 18 15 16 18 20 16 15 18 21 21 18 17 16 15 14 12 12 11 10 9 7 8 11 12 14 15 15 16 19 20 23 26 28 30 30 32 34 34 33 33 33
60 48 45 41 35 25 25 20 17 21 18 18 20 17 19 20 22 22 21 18 18 17 16 15 14 13 12 12 11 11 14 15 16 17 17 18 20 23 23 26 28 30 32 33 35 37 36 34 34
61 56 50 46 37 33 38 28 29 25 24 24 24 23 22 23 26 25 19 18 18 18 17 16 14 14 15 14 15 16 18 20 19 19 19 19 21 24 26 27 29 32 33 35 35 36 37 37 36
56 59 56 51 46 46 44 33 39 34 29 28 25 26 28 28 33 28 24 22 20 20 18 16 17 16 15 16 18 20 21 23 22 22 22 21 22 25 29 30 32 33 35 36 38 39 40 38 38
39 51 63 57 55 51 44 40 43 39 34 33 32 31 32 34 37 32 28 25 24 25 20 18 19 21 20 20 22 21 23 26 25 23 25 26 25 27 30 31 34 36 37 39 41 41 42 43 42
29 36 51 57 59 55 53 50 45 47 44 41 37 36 41 38 36 36 33 34 30 29 26 24 23 25 25 23 25 25 26 28 28 26 28 29 29 31 33 34 35 37 40 42 44 45 45 46 48
41 40 34 44 57 61 57 49 53 55 53 47 47 44 41 37 38 37 37 38 34 35 34 31 31 29 30 28 28 30 31 32 31 31 31 31 33 36 38 37 38 39 42 45 49 49 49 49 50
37 39 39 32 34 50 63 56 65 63 58 56 52 49 48 44 40 37 37 41 33 37 37 35 36 36 34 36 33 33 34 36 36 36 37 36 37 40 40 40 41 42 44 47 50 54 55 56 56

GFSSGP_250_spd_033.txt.gz
Wind_Speed
20 18 18 23 22 22 19 22 29 29 27 24 27 28 28 26 24 25 26 28 28 29 33 34 30 35 39 43 42 40 31 27 29 29 31 25 19 17 13 11 14 19 21 20 16 10 2 6 9
23 21 21 23 22 22 19 19 24 25 28 30 33 30 30 27 28 32 31 29 28 29 31 31 35 37 41 38 30 22 27 27 25 26 22 16 15 12 11 12 16 19 19 19 17 9 3 1 4
25 24 24 24 26 24 23 23 25 28 29 30 33 32 31 24 23 27 27 28 30 30 30 34 36 35 25 19 25 27 26 24 21 20 14 13 12 12 12 13 14 15 16 17 14 10 7 3 1
28 27 27 26 24 19 24 24 23 26 30 31 27 26 23 25 28 27 30 29 28 30 32 33 29 21 20 21 24 23 20 17 17 12 13 11 11 13 14 17 20 21 24 25 16 9 7 8 2
29 25 21 18 21 24 22 18 21 25 25 20 20 25 26 30 31 31 29 32 32 33 32 28 23 22 19 19 23 17 14 15 9 9 11 13 12 13 14 17 18 23 26 27 19 10 8 10 11
29 25 19 20 19 18 19 20 26 26 26 22 26 33 35 35 36 35 34 30 30 28 24 20 17 15 15 22 13 13 11 8 9 11 11 13 11 12 12 14 15 18 20 20 22 21 10 10 10
31 29 21 27 32 32 23 29 26 29 29 33 37 41 38 34 34 33 31 30 28 24 17 15 15 18 18 11 12 7 6 11 13 12 11 10 9 11 11 13 15 16 18 19 19 18 12 7 10
33 32 32 20 23 26 30 35 30 34 40 42 40 36 34 32 31 30 28 25 23 19 14 13 15 15 6 9 6 9 12 13 13 12 8 9 10 12 12 14 15 17 17 17 24 23 20 14 11
37 35 31 37 38 40 42 40 40 35 37 37 36 34 30 31 29 27 25 21 17 12 12 11 8 7 5 9 11 10 9 10 10 7 7 9 9 11 12 11 12 15 12 13 16 18 19 22 15
40 41 28 27 35 42 42 40 35 37 42 42 34 30 27 26 24 22 21 17 12 9 7 5 5 2 10 12 10 10 10 10 10 7 7 9 10 13 14 13 12 12 11 8 8 10 12 14 13
40 41 41 37 40 37 43 40 33 31 30 29 28 24 21 19 22 22 18 15 11 8 4 4 1 8 13 11 9 10 11 12 9 7 9 10 11 12 12 12 13 13 10 8 5 8 10 13 14
33 37 37 39 35 34 38 39 31 32 30 26 19 18 17 19 19 16 10 6 3 4 5 3 8 12 11 12 13 13 11 9 9 9 9 9 9 11 12 15 17 14 15 12 12 9 10 5 12
17 22 26 32 34 35 36 32 27 28 27 21 16 16 14 12 11 2 2 4 5 6 4 9 14 12 14 14 15 13 10 10 9 9 11 12 11 14 16 17 21 20 19 18 14 9 8 7 4
9 13 22 27 21 26 29 25 20 22 19 17 15 10 9 3 3 5 4 4 6 5 8 17 16 14 14 13 13 12 10 9 10 12 13 15 15 15 17 19 21 23 22 22 17 13 11 12 14
11 6 6 6 12 18 21 21 15 14 14 15 15 10 10 7 3 4 5 8 8 8 18 18 17 17 15 14 12 12 9 8 11 13 15 17 16 17 23 23 24 25 24 25 24 22 17 15 16
19 13 11 8 10 13 17 20 14 15 16 14 14 11 10 8 2 4 7 9 11 21 20 18 19 17 16 14 12 11 8 10 13 14 15 16 18 20 23 27 29 30 26 25 23 23 19 17 18
20 16 15 10 13 13 16 15 12 16 15 16 13 9 11 10 7 8 10 15 22 21 20 20 18 18 15 12 10 8 8 10 10 11 13 14 18 21 23 27 30 31 30 25 23 23 23 21 20
19 20 21 12 15 13 15 11 11 12 19 17 15 10 12 11 9 9 15 24 23 21 19 20 21 18 14 11 10 7 7 8 8 10 11 13 17 18 21 24 27 30 31 30 28 25 24 23 23
25 24 25 17 17 13 10 12 8 10 18 16 14 12 13 10 12 14 23 26 24 20 22 21 20 17 13 9 8 6 7 8 10 11 11 13 15 16 19 24 25 28 30 30 29 29 29 28 26
31 28 29 25 20 14 9 19 12 9 6 11 12 14 10 14 17 22 22 22 23 24 24 22 20 16 12 7 6 4 5 6 9 10 11 12 12 15 19 22 24 27 30 31 31 31 32 31 31
39 37 34 30 24 20 13 14 17 6 2 5 8 10 13 18 19 22 24 22 23 25 25 23 20 15 11 6 3 2 4 5 7 9 10 13 13 14 19 22 25 27 29 31 31 32 32 31 31
44 49 37 31 28 26 17 12 18 12 6 8 12 16 18 18 18 18 22 21 20 21 21 19 16 12 9 6 2 1 3 6 8 10 9 10 12 15 18 21 24 26 29 31 32 34 32 31 31
55 46 42 36 30 26 21 18 13 14 14 12 17 19 15 16 18 20 22 21 20 19 19 17 16 13 11 9 7 5 6 8 9 11 12 12 14 15 17 19 23 26 28 29 31 32 33 37 35
60 50 46 41 35 25 29 26 21 21 18 17 19 20 17 16 19 20 22 24 21 20 20 19 19 18 15 14 12 11 9 9 10 11 14 15 17 19 19 20 22 25 27 29 30 33 36 36 38
48 54 50 43 38 35 40 32 31 24 23 21 23 22 19 19 22 24 24 23 22 22 21 19 19 17 16 17 16 17 14 13 13 12 13 16 18 21 21 20 23 26 29 30 32 34 35 35 36
28 37 44 49 46 47 44 32 41 35 28 28 24 26 26 25 27 28 26 25 23 23 24 22 20 18 18 19 21 21 18 18 15 15 16 17 20 23 24 24 24 25 29 32 33 34 36 36 35
32 20 32 43 49 47 42 42 40 36 33 31 30 30 32 31 31 30 30 29 27 26 24 23 21 19 21 21 22 23 23 21 21 19 18 20 23 25 25 27 28 29 29 33 37 37 39 39 39
25 33 26 22 40 50 49 45 48 43 42 40 36 33 35 32 34 33 33 33 33 28 26 26 24 23 23 23 24 24 26 26 24 25 23 24 27 27 28 29 31 32 34 36 38 41 41 42 43
35 32 30 26 18 35 49 49 56 51 50 46 42 38 40 38 37 36 37 38 38 34 34 32 30 29 29 28 28 28 30 30 28 29 29 28 31 32 32 33 34 35 37 40 43 46 48 49 51
38 33 27 15 21 24 31 48 63 61 56 51 49 47 46 43 40 38 38 40 41 41 41 41 38 38 34 34 32 32 33 34 35 34 34 35 35 35 36 36 37 37 39 44 47 50 52 53 56

GFSSGP_250_spd_036.txt.gz
Wind_Speed
20 20 23 25 25 22 22 21 22 27 24 23 19 18 19 23 25 29 24 26 31 31 29 35 36 37 35 41 43 31 26 29 29 24 21 18 18 15 15 17 19 21 18 14 12 6 3 6 10
25 22 22 21 24 25 23 18 15 18 23 25 28 29 28 29 32 31 30 28 31 36 30 30 37 35 36 36 23 25 27 25 19 19 16 15 15 16 17 17 18 19 20 14 10 8 4 5 6
31 29 25 23 23 25 26 21 19 21 23 26 27 27 29 32 33 33 31 31 29 30 31 29 30 35 33 26 23 24 24 16 17 14 14 14 16 17 16 18 20 22 27 20 13 11 7 5 3
34 31 29 28 27 29 27 24 21 24 23 26 28 29 28 23 24 27 32 33 29 29 28 28 29 27 23 20 19 21 14 15 11 12 13 14 14 13 13 13 18 23 24 25 16 12 10 7 1
34 34 33 30 30 32 30 22 24 22 21 22 30 25 22 21 28 33 34 34 32 31 30 27 23 19 16 16 20 13 13 8 11 12 14 13 12 11 12 15 19 22 21 19 15 10 10 11 10
38 37 35 34 28 28 24 27 15 13 18 23 22 25 21 30 36 39 34 34 33 30 27 23 18 16 17 18 11 11 4 10 11 12 12 10 11 11 13 16 19 21 21 20 15 11 10 12 14
40 39 37 33 28 27 22 24 22 20 20 28 30 25 32 37 39 40 33 31 27 24 21 16 13 15 14 8 8 2 10 12 12 12 11 11 11 13 14 15 17 19 19 20 23 20 15 11 9
39 39 37 31 31 28 30 30 30 27 23 23 30 35 39 37 36 36 31 28 25 19 16 10 11 7 9 4 6 12 11 11 10 11 11 10 12 14 16 18 18 18 15 17 19 23 26 13 14
40 38 38 32 38 24 23 29 32 32 32 34 40 39 39 42 40 33 30 24 18 17 10 7 5 7 2 9 10 11 8 8 7 10 9 10 13 16 17 17 16 16 14 14 15 17 20 19 19
37 39 39 39 35 30 30 33 32 34 36 39 39 36 37 37 32 28 22 20 17 12 5 4 4 2 7 10 10 12 10 10 9 10 11 13 16 18 20 20 19 19 19 15 13 15 16 16 19
34 38 35 39 40 38 30 28 30 34 37 37 28 30 29 29 26 21 19 18 14 10 4 1 2 6 8 10 11 12 13 11 10 12 13 14 17 19 18 22 20 18 18 15 14 12 12 11 21
28 32 37 41 45 45 39 38 39 40 39 35 34 29 26 25 20 17 15 12 7 5 5 1 6 8 9 12 13 12 10 11 12 13 16 17 17 18 16 21 22 19 20 17 13 11 9 6 10
9 26 32 36 40 41 42 43 47 46 40 32 25 24 21 18 15 7 6 7 10 8 4 5 12 11 14 14 14 12 12 13 14 16 17 20 19 19 19 20 20 20 21 22 19 15 14 9 13
6 11 20 28 33 36 34 36 35 32 23 17 21 20 13 14 6 9 10 10 8 8 7 11 14 15 15 13 13 13 14 15 16 17 18 20 21 23 25 23 22 22 24 25 24 19 18 18 18
12 9 7 12 17 21 16 17 20 18 12 9 11 10 10 9 10 7 4 6 6 8 13 18 16 16 14 13 13 13 14 14 15 16 18 19 21 24 25 27 29 25 24 25 25 21 19 20 16
18 14 12 13 17 18 11 14 15 13 7 4 8 8 13 12 7 3 5 6 9 11 21 19 18 16 15 13 12 12 12 13 15 16 18 19 19 21 23 26 28 27 28 26 26 23 22 24 25
22 17 19 18 18 20 13 17 11 11 5 9 12 13 15 15 9 6 2 7 14 22 22 22 20 16 14 12 10 10 11 12 13 13 16 15 14 19 22 24 26 28 27 27 28 29 29 26 23
30 21 24 21 23 18 12 13 9 9 9 10 11 12 13 12 10 7 7 11 22 25 23 24 21 17 13 10 9 8 9 11 12 13 14 12 13 19 21 23 24 25 26 26 28 28 29 29 30
34 29 26 24 24 18 11 8 7 8 9 10 10 15 15 10 11 10 9 18 26 23 25 24 23 18 13 9 6 6 9 10 11 13 13 10 13 18 20 23 24 24 25 27 30 30 31 31 30
38 35 32 26 24 19 15 7 9 10 15 10 6 17 15 12 13 13 20 24 23 23 24 26 24 18 14 10 7 4 5 8 9 11 11 10 13 17 19 21 23 25 27 28 29 30 30 32 32
43 43 36 29 24 20 16 13 8 12 15 7 4 12 13 13 14 14 24 24 23 22 25 24 20 17 14 10 8 5 3 5 9 10 10 11 13 14 16 17 20 23 25 26 27 28 30 31 32
48 50 38 31 26 24 17 18 13 9 13 9 6 9 14 14 19 19 21 19 19 22 22 21 19 16 14 10 7 4 2 4 6 9 9 9 11 12 13 14 17 21 22 23 25 25 28 30 32
53 47 42 35 29 26 21 22 18 16 14 11 7 9 16 18 19 19 24 22 20 21 21 19 19 18 15 11 8 4 2 2 4 6 7 8 10 12 13 14 17 18 21 23 25 26 28 29 31
44 48 46 39 34 27 32 31 26 24 15 16 11 14 15 16 18 20 23 22 24 26 25 25 24 21 16 13 11 9 7 6 5 6 7 10 12 12 13 14 16 19 21 23 25 27 29 31 32
34 43 42 44 37 37 42 33 35 27 23 21 17 19 17 17 18 22 23 23 24 24 25 24 23 20 17 15 14 14 13 12 11 11 11 11 14 14 15 16 17 19 20 23 25 28 30 33 35
28 24 32 45 49 47 40 38 40 32 27 24 20 19 22 19 22 25 25 25 26 25 24 23 21 20 19 18 18 18 16 16 16 16 16 17 18 18 18 18 20 22 23 25 28 29 31 35 38
24 15 27 31 41 46 40 48 40 36 32 29 27 25 26 26 24 25 26 27 28 27 24 22 21 21 21 21 22 21 19 18 18 19 20 21 22 22 20 21 23 24 26 28 31 33 33 35 38
27 26 15 14 21 39 48 52 48 43 40 38 32 32 29 29 29 28 29 30 30 28 24 23 23 22 22 23 24 24 23 22 21 21 22 24 25 27 27 26 27 28 28 30 34 37 38 39 41
38 30 25 21 17 22 40 51 55 49 46 43 40 37 34 32 31 30 29 31 31 31 28 28 27 27 25 26 28 27 26 26 26 24 25 28 29 30 31 32 32 33 33 33 37 40 42 45 48
43 35 27 20 23 23 22 30 47 53 50 47 44 42 40 38 35 32 32 31 33 36 36 35 34 35 34 33 34 33 33 32 30 28 29 31 31 34 35 36 37 37 38 38 40 43 45 48 52

GFSSGP_250_spd_042.txt.gz
Wind_Speed
23 24 25 25 20 16 18 17 20 21 13 15 20 21 19 18 20 21 24 26 24 24 29 31 32 34 34 36 36 35 26 19 18 15 11 12 17 18 21 23 21 23 13 12 11 8 8 10 10
22 22 24 26 26 19 20 22 25 22 19 20 23 24 22 22 21 21 24 19 24 30 31 29 31 33 34 32 31 22 19 17 12 11 10 16 18 20 22 22 23 22 15 15 10 6 4 3 4
25 24 23 25 29 29 27 27 27 26 24 24 21 23 25 21 21 23 21 20 28 31 26 27 29 29 30 28 19 18 15 11 11 10 14 18 20 22 22 24 26 22 17 16 15 13 8 4 5
29 26 24 28 31 31 29 27 26 26 26 28 24 24 20 20 19 22 20 21 30 36 30 28 26 24 22 17 15 13 12 10 9 13 17 20 21 22 22 22 27 24 19 16 17 17 16 10 9
34 33 30 29 30 31 30 29 28 28 27 25 24 24 23 15 18 19 22 26 35 37 29 27 23 20 16 12 10 10 9 9 11 16 19 19 22 21 23 23 25 28 27 21 19 20 21 17 12
37 39 39 37 37 35 35 32 31 32 31 29 29 18 14 14 17 20 28 33 37 36 30 21 18 15 10 11 9 8 11 8 15 17 19 21 21 21 21 19 18 19 22 25 26 25 25 24 23
41 42 43 42 43 41 39 38 36 33 33 31 29 26 24 20 23 27 35 32 33 30 24 17 13 9 11 7 7 10 10 13 16 18 20 21 22 21 19 18 18 18 20 20 19 21 24 24 26
37 39 44 44 45 45 44 41 39 36 34 34 35 29 27 24 25 29 34 29 32 26 19 13 9 7 6 8 12 9 11 14 17 18 19 19 22 22 20 19 20 17 17 16 17 20 24 23 26
23 33 40 41 45 44 43 42 40 37 32 35 31 31 30 26 28 33 36 33 33 23 16 8 4 5 7 9 10 9 15 15 18 17 17 16 19 19 19 18 20 17 17 16 13 13 16 18 22
17 18 26 38 40 41 40 40 39 38 36 33 31 25 26 30 34 35 32 30 28 20 13 6 0 8 7 10 11 14 16 17 16 16 17 16 16 17 19 20 20 21 22 18 15 12 16 16 16
13 16 19 28 36 38 36 32 30 29 28 29 28 29 29 32 36 38 33 28 27 17 10 5 6 10 9 13 14 16 16 16 17 17 17 19 18 21 21 21 24 25 22 22 20 20 17 17 14
20 16 17 19 27 30 29 30 32 31 31 34 36 33 40 42 40 35 30 25 20 13 8 8 12 10 12 15 15 16 15 17 17 20 22 22 21 21 23 24 26 27 24 24 24 22 19 20 18
21 17 16 14 16 21 24 26 27 28 30 34 38 41 42 37 30 27 26 19 14 9 11 12 14 13 16 16 16 16 17 18 19 20 21 23 24 24 24 25 25 26 25 25 26 26 26 25 24
22 20 17 13 12 19 19 21 24 29 30 34 35 32 23 20 16 16 15 11 11 14 13 17 15 18 18 18 16 16 17 18 19 22 22 23 23 27 26 27 27 30 29 28 29 30 30 30 30
25 22 18 15 9 12 15 15 18 18 18 23 24 17 14 11 10 14 10 12 15 14 17 19 20 20 20 18 17 17 17 17 19 20 21 21 23 26 25 26 29 30 29 28 29 30 30 31 32
30 26 21 17 11 9 10 13 12 15 18 15 11 9 10 11 12 10 12 14 13 13 20 21 22 22 21 19 19 18 18 17 19 18 20 21 21 24 24 25 26 28 28 28 30 31 30 32 33
36 30 26 24 17 16 14 14 12 14 12 12 10 9 13 17 13 11 14 14 15 17 21 23 24 24 22 19 19 18 16 14 17 17 18 19 20 23 23 24 25 25 26 28 30 30 31 34 36
41 34 29 31 24 18 17 16 12 11 9 7 10 12 15 19 17 10 12 17 15 19 24 23 25 25 23 20 19 18 16 13 14 15 16 18 19 21 22 21 22 23 24 25 26 26 28 31 33
38 39 35 33 30 22 18 17 13 10 6 6 10 12 14 20 20 14 13 17 18 20 24 24 24 23 23 21 18 18 17 14 14 15 14 16 16 19 18 19 19 19 21 20 20 21 23 27 28
35 39 40 36 34 26 20 19 16 12 12 7 12 13 16 18 20 15 14 17 19 23 26 25 25 21 21 19 17 16 16 15 15 14 11 10 12 14 15 15 16 15 16 16 18 18 19 23 24
37 44 45 43 35 32 25 22 19 15 15 13 12 14 18 22 19 13 17 20 23 27 26 26 24 21 19 18 16 15 14 14 14 13 10 8 8 10 11 11 11 11 12 13 14 15 17 20 22
35 43 46 44 39 34 30 28 23 19 17 16 12 13 17 22 20 16 23 25 25 28 27 26 24 20 18 18 15 13 12 11 12 11 9 8 7 7 6 6 5 6 8 11 12 14 16 19 20
35 32 39 47 42 34 32 31 30 23 20 14 13 13 15 21 23 19 24 29 31 31 29 27 26 22 20 19 16 13 10 9 7 7 6 6 6 5 4 4 5 7 8 9 11 13 15 16 18
23 32 39 46 46 33 41 41 33 31 22 17 16 13 17 20 22 23 31 32 32 29 31 31 29 25 23 19 15 13 11 8 5 3 3 2 2 3 4 5 7 9 10 12 15 15 17 19 22
29 29 32 38 46 46 53 43 42 34 27 23 17 12 17 18 24 31 34 32 31 31 31 30 30 26 23 20 17 14 12 10 9 7 6 4 4 3 4 6 9 11 13 15 16 17 19 21 24
36 29 27 35 45 57 46 39 46 39 29 24 19 16 17 21 26 29 27 28 27 27 28 30 28 26 24 21 20 17 15 13 13 12 13 12 11 9 9 10 10 13 14 16 18 19 20 23 26
39 25 36 29 36 47 49 52 46 39 34 29 25 20 21 24 27 26 28 31 29 28 29 28 26 27 26 24 23 20 17 16 15 15 16 15 15 15 15 15 16 16 18 20 21 23 23 25 27
39 43 24 21 26 38 47 55 56 44 38 34 30 27 24 28 26 27 28 30 32 31 31 31 30 29 27 26 24 22 21 19 18 17 16 16 17 17 18 19 20 20 21 24 27 27 28 29 31
48 40 35 32 29 32 40 52 59 48 43 37 36 34 30 29 30 29 28 31 33 29 30 32 31 30 30 28 27 26 24 23 21 20 18 17 19 20 21 20 23 25 25 27 31 33 33 34 36
58 53 46 35 36 34 36 44 46 52 49 44 42 39 35 31 30 32 28 25 29 33 34 36 36 37 34 31 30 28 27 25 24 23 23 23 24 26 27 28 26 27 28 30 33 36 37 38 40

GFSSGP_250_spd_045.txt.gz
Wind_Speed
24 21 21 20 19 15 19 19 19 21 21 15 14 16 18 23 19 20 23 25 26 23 29 35 30 30 32 33 33 29 21 18 12 14 15 15 17 19 19 19 18 14 13 13 10 8 8 8 7
19 21 23 22 20 19 20 21 18 22 30 19 17 19 21 22 24 27 22 23 26 26 32 40 33 28 28 27 27 22 15 10 14 14 15 16 16 18 21 20 22 19 17 13 10 6 4 3 3
20 20 20 20 27 29 27 25 25 26 27 25 24 27 25 25 25 23 20 20 23 27 34 38 33 27 24 24 20 13 10 12 15 15 15 16 18 19 20 22 22 21 20 20 17 11 8 8 11
22 22 21 10 27 33 32 36 32 31 30 28 28 28 29 26 26 22 19 19 25 29 34 33 26 21 20 17 12 10 10 14 14 15 14 16 17 19 21 26 28 24 21 21 21 21 18 14 13
25 25 25 31 35 32 34 34 35 31 28 27 27 27 26 27 19 16 17 23 29 32 31 28 20 18 14 11 9 9 13 14 14 14 15 16 16 15 16 20 23 26 25 25 24 23 21 17 16
35 35 33 39 37 34 34 34 34 33 32 31 28 29 29 25 23 26 26 26 29 31 33 25 19 15 11 8 8 12 13 13 13 13 15 16 15 17 15 16 15 20 20 20 22 23 22 21 24
41 43 41 43 42 43 41 39 39 39 36 32 33 30 31 26 28 29 27 29 31 34 32 22 16 10 7 7 9 13 12 12 11 13 16 18 20 18 18 17 16 18 19 17 18 20 21 25 27
38 44 44 43 46 46 46 45 45 43 40 38 33 33 33 31 32 30 27 29 31 29 28 18 11 8 6 10 10 10 10 11 11 13 14 18 19 19 20 19 15 16 17 17 18 18 20 23 25
20 27 34 40 42 47 49 49 49 45 43 39 33 36 33 31 31 25 28 29 30 28 24 15 7 2 6 9 10 10 10 11 12 14 14 18 19 20 22 22 23 22 20 16 16 18 19 19 18
13 14 21 25 31 40 45 45 45 43 37 32 30 30 29 29 28 30 27 32 28 27 19 11 4 6 5 12 11 11 9 11 13 14 16 17 20 24 23 22 24 24 23 24 22 22 22 22 20
14 10 24 20 21 30 40 40 36 33 30 28 30 29 29 28 32 30 35 38 29 23 15 7 5 9 10 14 13 10 10 13 16 16 19 19 23 25 25 26 26 26 29 27 26 26 25 25 24
20 19 21 18 16 17 29 32 29 29 31 29 29 30 32 36 36 37 39 27 23 17 11 7 11 11 14 14 12 10 12 15 17 19 20 21 23 25 26 27 28 31 30 31 29 29 28 29 28
22 21 21 17 14 12 19 24 26 26 25 27 30 32 33 36 37 35 25 19 20 12 9 12 15 16 15 15 13 12 15 16 19 22 24 24 26 27 29 30 30 30 32 32 32 33 33 33 32
24 21 23 19 14 11 13 18 20 22 25 26 28 32 33 33 29 19 12 14 13 9 15 18 15 18 17 16 14 14 17 19 22 21 22 23 24 27 28 31 32 31 33 34 34 34 32 32 33
28 21 24 21 16 12 10 15 17 18 15 16 21 26 25 20 15 11 10 12 10 17 18 20 20 20 19 17 15 16 16 19 21 22 23 25 25 26 27 30 32 32 33 35 35 35 35 35 35
29 25 23 24 20 15 8 8 10 11 13 18 20 18 14 10 9 8 9 11 16 18 21 21 23 21 20 18 18 19 18 20 20 22 22 24 25 26 25 27 29 31 33 33 34 33 34 35 37
29 29 25 25 21 17 12 10 10 16 14 16 13 12 9 8 10 11 14 14 15 17 23 24 24 22 21 20 20 21 20 19 20 20 22 23 23 25 25 25 27 26 28 29 28 28 31 33 34
33 30 27 26 25 20 19 18 19 17 12 14 12 13 11 13 16 16 12 14 14 18 25 26 25 23 21 19 20 21 19 18 19 20 20 21 22 22 22 24 23 23 24 24 23 24 26 29 33
35 32 30 30 30 25 24 22 19 16 13 12 13 17 15 18 19 17 13 15 17 18 26 25 24 22 20 19 18 18 19 19 19 19 18 18 18 18 18 20 20 20 19 18 18 20 22 24 27
36 34 35 33 34 32 28 25 20 16 14 13 11 13 16 19 20 19 15 11 17 19 26 25 25 23 20 17 16 15 18 19 18 17 16 15 16 14 15 15 15 14 14 13 16 17 20 23 24
37 37 39 41 39 37 31 29 24 19 15 14 15 11 17 19 21 24 17 15 21 24 27 26 25 22 20 17 16 16 16 17 14 13 13 13 13 12 11 11 11 11 11 12 14 15 17 19 22
37 40 39 40 42 40 37 33 27 23 19 17 17 13 14 21 21 25 24 19 24 26 27 27 26 23 20 18 16 15 14 13 10 9 10 11 10 8 7 7 8 7 8 11 13 14 14 17 19
39 35 32 34 36 43 34 35 33 29 25 21 17 15 16 18 21 25 25 20 26 30 30 29 27 24 21 20 16 13 12 12 9 8 8 9 7 7 5 4 5 6 8 9 11 13 15 16 18
34 32 33 35 38 34 37 39 39 35 31 23 21 19 17 17 22 22 25 23 35 36 33 32 31 27 25 22 18 15 12 9 8 6 5 4 3 2 3 4 5 6 8 10 11 12 13 17 19
35 33 31 29 34 34 49 49 46 42 33 29 24 19 17 15 20 23 30 29 41 40 36 35 32 29 25 21 18 16 13 11 9 7 5 4 3 2 2 3 5 8 9 10 12 14 15 17 20
39 35 32 32 35 46 56 45 47 43 39 32 26 22 20 17 21 25 28 31 42 38 34 33 31 30 28 25 22 18 15 13 11 10 10 10 9 8 8 9 10 10 12 14 15 17 19 20 21
44 33 38 35 32 40 42 50 51 43 39 35 30 26 24 21 23 27 29 35 39 37 35 35 33 32 28 27 25 22 19 16 14 14 15 13 13 14 12 12 14 16 16 18 19 20 21 23 26
41 45 28 30 27 32 46 46 51 48 43 37 33 30 28 24 23 29 32 37 38 37 35 34 32 32 31 30 30 26 24 21 18 18 17 16 17 16 13 13 16 20 21 21 22 23 25 26 29
52 40 32 31 30 35 41 50 52 52 44 40 38 37 33 28 27 30 33 36 37 34 35 38 40 38 36 34 32 30 28 25 23 20 19 18 19 18 17 16 18 22 25 26 26 27 29 32 34
58 54 47 43 34 36 38 41 46 46 51 45 40 40 38 34 31 31 30 28 30 35 35 35 36 36 37 36 35 33 31 28 26 24 22 22 21 21 21 22 22 25 29 29 29 30 34 36 37

GFSSGP_250_spd_048.txt.gz
Wind_Speed
23 20 18 21 16 18 17 22 18 17 19 23 25 14 12 14 17 22 26 27 25 24 27 29 35 39 37 31 26 21 16 10 13 14 15 13 12 15 16 18 16 14 14 12 8 5 8 6 6
22 23 19 16 19 20 23 22 20 22 21 22 27 23 20 23 25 27 24 24 20 20 29 32 35 35 31 23 19 14 10 10 12 13 14 13 12 15 17 19 20 15 10 7 6 5 3 5 7
16 18 19 20 23 26 27 24 25 26 25 25 28 28 26 27 26 26 26 19 17 24 29 33 34 29 22 17 13 9 8 11 13 13 12 13 15 16 18 20 20 19 17 15 11 8 9 11 8
19 19 17 22 24 22 29 33 34 37 36 32 31 28 25 24 24 26 21 19 22 26 30 35 32 24 18 15 9 8 8 11 12 12 12 12 13 15 19 20 18 17 19 20 20 17 13 12 13
18 18 21 22 21 21 18 25 33 35 36 34 34 30 29 27 26 24 24 26 28 28 30 32 28 21 14 9 8 7 8 12 13 14 14 12 13 12 15 19 20 22 23 21 22 20 19 17 19
21 18 26 33 36 34 34 35 36 35 35 33 34 34 33 31 30 31 28 27 28 29 26 31 25 16 12 5 8 6 10 11 13 16 15 17 17 14 12 11 12 14 17 16 18 17 20 25 27
28 26 21 36 42 36 41 39 42 40 39 39 39 37 37 36 34 32 27 30 26 27 27 28 21 13 4 8 5 6 9 11 13 17 20 22 19 18 15 14 14 15 17 18 19 20 23 26 27
38 41 47 47 45 48 45 48 45 45 43 42 40 40 39 36 33 30 29 28 25 25 26 23 18 8 4 6 3 6 10 13 15 19 23 24 25 25 24 20 19 19 19 20 22 22 25 24 23
31 34 40 44 41 50 52 50 48 48 48 43 38 36 34 32 31 30 27 25 26 25 28 20 11 1 3 4 3 7 10 15 12 21 29 16 22 23 27 26 23 22 24 26 25 23 23 24 23
15 15 19 22 18 20 28 33 36 40 41 36 29 29 32 30 30 28 27 26 24 29 25 16 5 5 5 5 4 9 13 15 18 24 23 21 21 25 30 30 28 28 29 28 30 31 30 31 28
13 12 9 12 13 20 18 27 36 36 36 27 26 30 31 30 29 28 27 30 31 33 16 10 5 8 8 6 6 9 14 17 19 19 8 21 18 26 37 34 34 32 32 33 33 33 35 35 34
18 16 17 20 17 18 15 31 36 32 34 25 29 30 29 30 29 30 32 31 32 19 12 6 11 12 10 5 9 11 13 18 23 28 29 23 25 25 27 28 30 30 31 33 34 35 38 40 41
23 23 23 25 21 15 10 24 31 24 25 24 25 28 28 31 29 32 33 28 17 10 9 11 14 15 11 7 10 12 14 20 27 31 31 31 32 32 30 24 23 27 31 32 33 33 34 37 38
26 27 24 26 24 17 14 30 27 23 20 21 22 25 28 28 28 26 22 16 10 9 11 16 17 17 11 10 13 13 17 20 24 28 30 32 32 34 32 33 29 31 33 35 38 40 40 39 40
28 26 25 25 23 20 16 14 12 11 11 16 12 19 24 24 22 17 14 10 9 11 18 21 20 17 13 13 15 16 19 22 25 27 29 31 31 35 34 34 32 33 33 35 35 36 36 39 42
30 28 27 29 26 23 16 11 2 5 24 28 15 22 22 16 14 10 9 8 9 18 21 21 22 18 15 15 17 18 20 23 24 25 27 29 29 29 30 30 29 31 31 31 32 33 36 40 45
32 33 29 27 28 26 17 10 3 9 13 20 18 21 18 12 8 7 6 12 19 18 22 23 22 18 17 17 19 19 21 22 26 28 27 27 27 27 26 26 22 25 25 25 26 29 33 37 39
36 33 29 26 29 27 20 13 8 13 24 26 22 19 18 10 6 7 11 17 18 16 23 26 23 20 19 19 19 18 18 22 23 25 26 25 24 24 24 23 21 21 21 22 24 28 28 32 33
33 29 27 26 30 30 25 20 14 20 14 26 24 17 23 13 11 12 15 14 15 16 23 25 24 21 20 21 19 17 18 20 21 21 23 23 22 20 21 20 18 18 18 19 20 23 25 26 29
39 34 34 35 34 34 31 27 23 27 26 13 25 15 18 17 15 15 17 15 14 16 22 25 24 23 21 20 19 16 16 18 19 18 17 18 17 17 19 16 15 15 15 16 17 19 21 22 25
46 40 38 38 37 38 39 33 28 32 23 26 15 21 12 20 19 18 18 16 18 20 26 27 26 23 20 19 18 18 17 16 15 14 15 15 13 14 14 13 13 13 12 13 15 15 17 18 21
47 46 41 37 36 34 41 38 35 31 28 36 32 21 16 16 22 21 22 18 20 22 29 27 26 23 20 18 18 19 17 14 12 9 10 10 9 10 10 9 8 9 11 11 12 13 14 15 18
47 44 41 39 35 37 37 43 38 37 36 32 27 23 18 16 21 25 23 21 16 26 32 30 27 25 21 19 18 17 17 14 11 10 8 8 7 6 7 6 7 8 9 10 11 13 14 14 15
43 40 39 40 38 34 38 41 45 42 42 34 29 26 21 19 18 25 24 24 24 28 36 34 31 27 25 22 19 18 17 15 13 13 12 8 6 5 5 5 4 5 7 10 13 14 15 16 17
43 42 41 37 34 35 44 44 48 49 46 37 31 26 23 19 18 22 30 25 26 28 40 38 36 32 28 24 21 18 17 15 13 11 10 9 7 3 1 1 2 4 5 9 11 13 15 17 20
48 46 40 43 40 41 44 46 52 53 47 41 34 27 25 23 21 22 29 26 26 29 40 39 36 33 29 25 23 21 19 17 14 12 11 9 6 6 7 6 8 7 6 8 11 13 14 17 21
50 40 49 43 38 36 42 48 55 53 48 40 34 30 28 26 24 23 25 29 31 34 43 42 37 32 30 28 27 25 23 19 16 15 14 11 11 12 11 11 11 10 11 12 15 17 18 20 24
52 54 47 37 37 38 37 39 49 49 47 45 39 34 32 30 26 21 24 29 31 33 44 42 40 38 34 30 30 28 25 23 21 18 15 15 14 15 13 14 13 13 14 16 18 19 21 23 26
53 49 41 44 39 39 41 41 45 46 48 46 40 38 36 33 27 23 24 29 32 37 46 44 43 39 38 39 35 33 31 28 24 21 19 17 16 15 14 13 13 15 19 23 25 27 25 26 29
61 55 52 44 37 37 42 40 34 43 45 47 45 42 42 37 31 27 25 27 30 43 46 43 43 43 44 39 37 37 36 32 29 24 22 21 19 19 18 16 17 19 24 27 28 26 24 26 32